Hamilton Island Airport, Australia

5:45 AM AEST on February 15, 2016 (GMT +1000)
Hamilton Island

Weather History for YBHM - November, 2013

Change the Weather History Date:

Monday, November 25, 2013

  Actual Average Record
Temperature  
Mean Temperature 82 °F -  
Max Temperature 86 °F - - ()
Min Temperature 77 °F - - ()
Cooling Degree Days 16    
Growing Degree Days 32 (Base 50)    
Moisture  
Dew Point 74 °F    
Average Humidity 82    
Maximum Humidity 89    
Minimum Humidity 69    
Precipitation  
Precipitation 0.04 in - - ()
Sea Level Pressure  
Sea Level Pressure 29.66 in    
Wind  
Wind Speed 17 mph ()    
Max Wind Speed 28 mph    
Max Gust Speed -    
T = Trace of Precipitation, MM = Missing Value Source: Averaged Metar Reports

Daily Weather History Graph

Daily Weather History Graph

Search for Another Location

Airport or City:

Trip Planner

Search our weather history database for the weather conditions in past years. The results will help you decide how hot, cold, wet, or windy it might be!

Date:

Astronomy

Nov. 25, 2013 Rise Set
Actual Time 5:14 AM AEST 6:27 PM AEST
Civil Twilight 4:50 AM AEST 6:51 PM AEST
Nautical Twilight 4:22 AM AEST 7:20 PM AEST
Astronomical Twilight 3:53 AM AEST 7:49 PM AEST
Moon No Moon Rise 11:14 AM AEST (11/25)
Length of Visible Light 14h 00m
Length of Day
13h 12m
Waning Gibbous, 57% of the Moon is Illuminated
Nov 25
Waning Gibbous
Nov 26
Last Quarter
Dec 3
New
Dec 10
First Quarter
Dec 17
Full

Hourly Weather History & Observations

Time (AEST) Temp. Heat Index Dew Point Humidity Pressure Visibility Wind Dir Wind Speed Gust Speed Precip Events Conditions
12:00 AM 79 °F - 75 °F 83% 29.71 in - NW 20.7 mph - -  
12:00 AM 78.8 °F - 75.2 °F 89% 29.71 in - NW 20.7 mph - N/A   Unknown
12:30 AM 78.8 °F - 75.2 °F 89% 29.71 in - NW 21.9 mph - N/A   Unknown
1:00 AM 78.8 °F - 75.2 °F 89% 29.68 in - NW 24.2 mph - N/A   Unknown
1:30 AM 78.8 °F - 75.2 °F 89% 29.68 in - NW 21.9 mph - N/A   Unknown
2:00 AM 78.8 °F - 75.2 °F 89% 29.65 in - NW 20.7 mph - N/A   Unknown
2:30 AM 78.8 °F - 75.2 °F 89% 29.65 in - NW 16.1 mph - N/A   Unknown
3:00 AM 80 °F - 73 °F 74% 29.65 in - NW 19.6 mph - -  
3:00 AM 78.8 °F - 73.4 °F 83% 29.65 in - NW 19.6 mph - N/A   Unknown
3:30 AM 78.8 °F - 73.4 °F 83% 29.65 in - NW 17.3 mph - N/A   Unknown
4:00 AM 78.8 °F - 73.4 °F 83% 29.65 in - NW 19.6 mph - N/A   Unknown
4:30 AM 78.8 °F - 73.4 °F 83% 29.65 in - WNW 18.4 mph - N/A   Unknown
5:00 AM 78.8 °F - 73.4 °F 83% 29.65 in - NW 20.7 mph - N/A   Unknown
5:30 AM 78.8 °F - 73.4 °F 83% 29.65 in - NW 19.6 mph - N/A   Unknown
6:00 AM 80 °F - 74 °F 77% 29.67 in - WNW 18.4 mph - -  
6:00 AM 80.6 °F 85.4 °F 73.4 °F 79% 29.68 in - WNW 18.4 mph - N/A   Unknown
6:30 AM 78.8 °F - 75.2 °F 89% 29.68 in - NW 16.1 mph - N/A   Unknown
7:00 AM 80.6 °F 86.2 °F 75.2 °F 84% 29.68 in - NW 16.1 mph - N/A   Unknown
7:30 AM 80.6 °F 86.2 °F 75.2 °F 84% 29.68 in - NW 16.1 mph - N/A   Unknown
8:00 AM 80.6 °F 86.2 °F 75.2 °F 84% 29.68 in - NW 13.8 mph - N/A   Unknown
8:30 AM 80.6 °F 86.2 °F 75.2 °F 84% 29.68 in - NNW 12.7 mph - N/A   Unknown
9:00 AM 82 °F - 76 °F 78% 29.69 in - NNW 13.8 mph - -  
9:00 AM 82.4 °F 90.9 °F 77.0 °F 84% 29.68 in - NNW 13.8 mph - N/A   Unknown
9:30 AM 82.4 °F 90.9 °F 77.0 °F 84% 29.68 in - NNW 15.0 mph - N/A   Unknown
10:00 AM 84.2 °F 92.3 °F 75.2 °F 74% 29.68 in - NNW 15.0 mph - N/A   Unknown
10:30 AM 86.0 °F 96.9 °F 77.0 °F 74% 29.68 in - NNW 13.8 mph - N/A   Unknown
11:00 AM 86.0 °F 96.9 °F 77.0 °F 74% 29.68 in - NW 12.7 mph - N/A   Unknown
11:30 AM 86.0 °F 96.9 °F 77.0 °F 74% 29.68 in - NW 10.4 mph - N/A   Unknown
12:00 PM 84 °F - 76 °F 71% 29.68 in - NW 13.8 mph - -  
12:00 PM 84.2 °F 94.1 °F 77.0 °F 79% 29.68 in - NW 13.8 mph - N/A   Unknown
12:30 PM 82.4 °F 90.9 °F 77.0 °F 84% 29.65 in - NW 18.4 mph - N/A   Unknown
1:00 PM 80.6 °F 87.1 °F 77.0 °F 89% 29.65 in - NW 19.6 mph - N/A   Unknown
1:30 PM 80.6 °F 87.1 °F 77.0 °F 89% 29.65 in - NW 19.6 mph - N/A   Unknown
2:00 PM 80.6 °F 87.1 °F 77.0 °F 89% 29.65 in - NW 19.6 mph - N/A   Unknown
2:30 PM 78.8 °F - 73.4 °F 83% 29.62 in - NW 21.9 mph - N/A   Unknown
3:00 PM 78 °F - 73 °F 80% 29.64 in - NW 18.4 mph - -  
3:00 PM 78.8 °F - 73.4 °F 83% 29.62 in - NW 18.4 mph - N/A   Unknown
3:30 PM 77.0 °F - 71.6 °F 83% 29.62 in - NNW 17.3 mph - N/A   Unknown
4:00 PM 78.8 °F - 71.6 °F 78% 29.62 in - NNW 17.3 mph - N/A   Unknown
4:30 PM 77.0 °F - 69.8 °F 78% 29.62 in - NW 18.4 mph - N/A   Unknown
5:00 PM 78.8 °F - 69.8 °F 74% 29.62 in - NW 13.8 mph - N/A   Unknown
5:30 PM 78.8 °F - 68.0 °F 69% 29.62 in - WNW 9.2 mph - N/A   Unknown
6:00 PM 79 °F - 71 °F 70% 29.65 in - NW 12.7 mph - -  
6:00 PM 78.8 °F - 71.6 °F 78% 29.65 in - NW 12.7 mph - N/A   Unknown
6:30 PM 78.8 °F - 71.6 °F 78% 29.65 in - NW 16.1 mph - N/A   Unknown
7:00 PM 78.8 °F - 73.4 °F 83% 29.65 in - NW 16.1 mph - N/A   Unknown
7:30 PM 78.8 °F - 71.6 °F 78% 29.65 in - NW 18.4 mph - N/A   Unknown
8:00 PM 80.6 °F 84.6 °F 71.6 °F 74% 29.68 in - NW 17.3 mph - N/A   Unknown
8:30 PM 78.8 °F - 73.4 °F 83% 29.68 in - NW 21.9 mph - N/A   Unknown
9:00 PM 80 °F - 73 °F 74% 29.67 in - NW 21.9 mph - -  
9:00 PM 80.6 °F 85.4 °F 73.4 °F 79% 29.68 in - NW 21.9 mph - N/A   Unknown
9:30 PM 80.6 °F 86.2 °F 75.2 °F 84% 29.68 in - NW 25.3 mph - N/A   Unknown
10:00 PM 80.6 °F 87.1 °F 77.0 °F 89% 29.68 in - NW 25.3 mph - N/A   Unknown
10:30 PM 80.6 °F 87.1 °F 77.0 °F 89% 29.68 in - NW 27.6 mph - N/A   Unknown
11:00 PM 80.6 °F 87.1 °F 77.0 °F 89% 29.68 in - NW 23.0 mph - N/A   Unknown
11:30 PM 80.6 °F 87.1 °F 77.0 °F 89% 29.65 in - NNW 20.7 mph - N/A   Unknown